This demonstration page uses our WeatherBlox Daily Observations layout. Learn more.

Left ArrowRight Arrow

47.50024, -111.30081

Hourly Observations for May 27, 2017

Temp ( °F °C ) Dew Point ( °F °C ) Humidity (%) Winds ( mph kmh ) Pressure ( in mb ) Visibility ( mi km ) Precip ( " mm )
12:53 am 00:53 Mostly Cloudy 47 8.3 38 3.3 71 71 SW 10 17 30.01 1016 10 16 0.00 0.00
1:53 am 01:53 Clear 47 8.3 38 3.3 71 71 SSW 12 19 30.01 1016 10 16 0.00 0.00
2:53 am 02:53 Clear 46 7.8 37 2.8 71 71 SSW 12 19 30.01 1016 10 16 0.00 0.00
3:53 am 03:53 Clear 45 7.2 37 2.8 74 74 SSW 10 17 30.01 1016 10 16 0.00 0.00
4:53 am 04:53 Clear 44 6.7 36 2.2 73 73 SSW 12 19 30.02 1017 10 16 0.00 0.00
5:53 am 05:53 Mostly Sunny 44 6.7 36 2.2 73 73 SSW 13 20 30.03 1017 10 16 0.00 0.00
6:53 am 06:53 Cloudy 49 9.4 38 3.3 66 66 SSW 12 19 30.04 1017 10 16 0.00 0.00
7:53 am 07:53 Partly Cloudy 53 11.7 38 3.3 57 57 SSW 14 22 30.05 1018 10 16 0.00 0.00
8:53 am 08:53 Partly Cloudy 57 13.9 39 3.9 51 51 SW 15 24 30.06 1018 10 16 0.00 0.00
9:53 am 09:53 Sunny 61 16.1 40 4.4 46 46 SW 13 20 30.07 1018 10 16 0.00 0.00
10:53 am 10:53 Mostly Sunny 67 19.4 39 3.9 36 36 W 10 17 30.04 1017 10 16 0.00 0.00
11:53 am 11:53 Partly Cloudy 70 21.1 36 2.2 29 29 SSW 8 13 30.04 1017 10 16 0.00 0.00
12:53 pm 12:53 Mostly Cloudy 70 21.1 32 0 25 25 NW 13 20 30.05 1018 10 16 0.00 0.00
1:53 pm 13:53 Mostly Cloudy 72 22.2 32 0 23 23 NW 8 13 30.05 1018 10 16 0.00 0.00
2:53 pm 14:53 Partly Cloudy 73 22.8 33 0.6 23 23 WNW 9 15 30.05 1018 10 16 0.00 0.00
3:53 pm 15:53 Mostly Sunny 75 23.9 34 1.1 22 22 WNW 13 20 30.05 1018 10 16 0.00 0.00
4:53 pm 16:53 Mostly Cloudy 74 23.3 35 1.7 24 24 VRB 6 9 30.06 1018 10 16 0.00 0.00
5:53 pm 17:53 Partly Cloudy 74 23.3 33 0.6 22 22 W 5 7 30.06 1018 10 16 0.00 0.00
6:53 pm 18:53 Cloudy 69 20.6 37 2.8 31 31 NNE 7 11 30.07 1018 10 16 0.00 0.00
7:53 pm 19:53 Mostly Sunny 71 21.7 36 2.2 28 28 Calm 30.05 1018 10 16 0.00 0.00
8:53 pm 20:53 Mostly Cloudy 62 16.7 42 5.6 48 48 S 6 9 30.06 1018 10 16 0.00 0.00
9:53 pm 21:53 Cloudy 63 17.2 40 4.4 43 43 SSW 3 6 30.06 1018 10 16 0.00 0.00
10:53 pm 22:53 Mostly Cloudy 53 11.7 41 5 64 64 WNW 3 6 30.10 1019 10 16 0.00 0.00
11:53 pm 23:53 Clear 51 10.6 42 5.6 71 71 S 6 9 30.11 1020 10 16 0.00 0.00

Powered by AerisWeather